Regional Weather Roundup
Issued by NWS

Home | Current Version | Previous Version | Graphics & Text | Print | Product List | Glossary On
Versions: 1 2 3 4 5 6 7 8 9 10 11 12 13 14 15 16 17 18 19 20 21 22 23 24 25 26 27 28 29 30 31 32 33 34 35 36 37 38 39 40 41 42 43 44 45 46 47 48 49
000
ASUS45 KBOU 221807
RWRCO

WEATHER ROUNDUP FOR COLORADO
NATIONAL WEATHER SERVICE DENVER/BOULDER CO
1200 PM MDT MON SEP 22 2014

NOTE: "FAIR" INDICATES FEW OR NO CLOUDS BELOW 12000 FEET WITH NO
SIGNIFICANT WEATHER AND/OR OBSTRUCTIONS TO VISIBILITY.

COZ001>005-013-030-031-221900-
...NORTHWEST COLORADO...

CITY           SKY/WX    TMP DP  RH WIND       PRES   REMARKS
CRAIG          LGT RAIN  60  50  69 CALM      30.30S
HAYDEN         CLOUDY    55  46  71 E6        30.31F
MEEKER         CLOUDY    60  49  66 NE5       30.30F
MOUNT WERNER   NOT AVBL
STEAMBOAT SPGS CLOUDY    55  47  72 CALM      30.34S
WALDEN         CLOUDY    59  41  51 SW22G28   30.36F
$$

COZ006>008-011-221900-
...WEST CENTRAL VALLEYS...

CITY           SKY/WX    TMP DP  RH WIND       PRES   REMARKS
GRAND JUNCTION MOSUNNY   71  55  56 E3        30.22F
MONTROSE       MOSUNNY   73  56  54 W5        30.27F
EAGLE          HAIL      63  55  77 W6        30.34R VSB 1
RIFLE          PTSUNNY   62  56  80 NE6       30.29S
DELTA          MOSUNNY   74  58  56 CALM      30.24F
NUCLA          SUNNY     72  55  56 NW5       30.31F
$$

COZ017>023-064>068-221900-
...SOUTHWEST COLORADO...

CITY           SKY/WX    TMP DP  RH WIND       PRES   REMARKS
DURANGO        PTSUNNY   65  57  75 E5        30.36F
CORTEZ         MOSUNNY   71  57  61 VRB5      30.30F
PAGOSA SPRINGS CLOUDY    60  54  80 S5        30.43F
TELLURIDE      NOT AVBL
WOLF CREEK PAS HVY SNOW  41  41 100 S23G43    30.61F VSB<1/4
$$

COZ009-010-012-014-032>034-037-058>063-221900-
...CENTRAL COLORADO...

CITY           SKY/WX    TMP DP  RH WIND       PRES   REMARKS
ASPEN          LGT RAIN  64  50  60 N7        30.35S
BUENA VISTA    PTSUNNY   61  50  66 SE9       30.37F
COPPER MTN     PTSUNNY   54  37  54 W15G24    30.60S
BERTHOUD PASS  PTSUNNY   43  41  93 W25       30.61F
COTTONWOOD PAS PTSUNNY   59  46  63 SE3       30.48F
GUNNISON       PTSUNNY   61  52  72 CALM      30.41F
KREMMLING      CLOUDY    55  46  71 CALM      30.37S
LEADVILLE      PTSUNNY   55  42  61 S3        30.46F
MONARCH PASS   FOG       43  41  93 W26G44    30.70F VSB<1/4
SALIDA         CLOUDY    62  56  80 SE9       30.42F
SUNLIGHT       FOG       46  46 100 CALM      30.52F THUNDER VSB 1
WILKERSON PASS NOT AVBL
$$

COZ069>075-221900-
...SAN LUIS VALLEY/SANGRE DE CRISTO MOUNTAINS...

CITY           SKY/WX    TMP DP  RH WIND       PRES   REMARKS
ALAMOSA        LGT RAIN  69  49  48 SW12G24   30.37F
LA VETA PASS   CLOUDY    54  46  76 S13G29    30.51S
SAGUACHE       NOT AVBL
$$

COZ035-036-038>040-221900-
...NORTHERN COLORADO FRONT RANGE...

CITY           SKY/WX    TMP DP  RH WIND       PRES   REMARKS
DENVER INTL AP PTSUNNY   70  53  54 SE8       30.18F
DMNS CITY PARK   N/A     71  54  54 S6        30.15F
AURORA         PTSUNNY   70  53  54 S12       30.19F
FRONT RANGE AP PTSUNNY   73  55  53 SE13      30.18
ERIE MUNI ARPT NOT AVBL
BOULDER MUN AP PTSUNNY   70  54  56 E7        30.15F
CENTENNIAL     CLOUDY    68  53  58 SE12      30.20F
BROOMFIELD     NOT AVBL
FORT COLLINS   PTSUNNY   66  54  63 CALM      30.16F
LONGMONT       PTSUNNY   74  53  47 CALM      30.17F
$$

COZ041-046-047-076>085-087-088-221900-
...PIKES PEAK/PALMER DIVIDE AND SOUTHERN FOOTHILLS...

CITY           SKY/WX    TMP DP  RH WIND       PRES   REMARKS
COLO. SPRINGS  PTSUNNY   65  52  62 SE7       30.28F
A. F. ACADEMY  MOSUNNY   62  52  70 S7        30.29F
ELLICOTT       NOT AVBL
FALCON         LGT RAIN  60  53  76 CALM      30.32F
FORT CARSON    PTSUNNY   61  51  68 CALM      30.26F
LIMON          LGT RAIN  65  57  75 S14       30.24F
MONUMENT HILL  DRIZZLE   61  54  77 S14       30.28F
TRINIDAD       MOSUNNY   73  55  53 SW8       30.25F
$$

COZ042>045-048>051-090-091-221900-
...NORTHEAST COLORADO...

CITY           SKY/WX    TMP DP  RH WIND       PRES   REMARKS
GREELEY ARPT   PTSUNNY   72  52  49 CALM      30.14F
AKRON          CLOUDY    67  56  67 S22       30.19F
BURLINGTON     CLOUDY    69  48  47 S24G36    30.22F
WRAY           LGT RAIN  63  56  78 E7        30.21F
STERLING       CLOUDY    70  57  64 S10       30.15F
HOLYOKE        LGT RAIN  59  54  82 S10       30.19F
FORT MORGAN    CLOUDY    63  54  73 S10       30.16F
$$

COZ086-089-092>099-221900-
...SOUTHEAST COLORADO...

CITY           SKY/WX    TMP DP  RH WIND       PRES   REMARKS
PUEBLO         CLOUDY    69  51  52 SW5       30.21F
LA JUNTA       PTSUNNY   79  56  45 S21G26    30.17F
LAMAR          MOSUNNY   78  54  43 S28G37    30.19F
SPRINGFIELD      N/A     71  52  50 S28G33    30.29F
$$


USA.gov is the U.S. government's official web portal to all federal, state and local government web resources and services.